• In Hungary
  • List of Countries
  • For 7 days
  • Water Temperature
  • Satellite Maps
  • Weather Map
  • News
  • Weather Widgets
  • user-avatar
    Login

    Hourly Weather Przywidz

    Today, 16 October, Tuesday

    Time Temperature Precipitation Wind Pressure Humidity
    00:00 +13°C° 0 mm 3 mps 747 mmHg 60%
    01:00 +13°C° 0 mm 3 mps 746 mmHg 60%
    02:00 +12°C° 0 mm 3 mps 746 mmHg 62%
    03:00 +12°C° 0 mm 3 mps 746 mmHg 64%
    04:00 +11°C° 0 mm 3 mps 746 mmHg 65%
    05:00 +11°C° 0 mm 3 mps 747 mmHg 65%
    06:00 +11°C° 0 mm 3 mps 747 mmHg 65%
    07:00 +11°C° 0 mm 3 mps 747 mmHg 63%
    08:00 +13°C° 0 mm 4 mps 747 mmHg 58%
    09:00 +14°C° 0 mm 4 mps 747 mmHg 52%
    10:00 +17°C° 0 mm 4 mps 747 mmHg 46%
    11:00 +18°C° 0 mm 4 mps 747 mmHg 44%
    12:00 +19°C° 0 mm 3 mps 748 mmHg 41%
    13:00 +21°C° 0 mm 3 mps 748 mmHg 39%
    14:00 +20°C° 0 mm 3 mps 748 mmHg 42%
    15:00 +19°C° 0 mm 2 mps 748 mmHg 45%
    16:00 +18°C° 0 mm 2 mps 747 mmHg 48%
    17:00 +17°C° 0 mm 2 mps 747 mmHg 50%
    18:00 +16°C° 0 mm 2 mps 747 mmHg 53%
    19:00 +15°C° 0 mm 2 mps 747 mmHg 55%
    20:00 +15°C° 0 mm 2 mps 748 mmHg 57%
    21:00 +14°C° 0 mm 2 mps 748 mmHg 58%
    22:00 +14°C° 0 mm 2 mps 748 mmHg 59%
    23:00 +13°C° 0 mm 2 mps 748 mmHg 60%

    Tomorrow, 17 October, Wednesday

    Time Temperature Precipitation Wind Pressure Humidity
    00:00 +13°C° 0 mm 2 mps 748 mmHg 61%
    01:00 +13°C° 0 mm 2 mps 748 mmHg 62%
    02:00 +12°C° 0 mm 2 mps 748 mmHg 62%
    03:00 +12°C° 0 mm 2 mps 747 mmHg 63%
    04:00 +12°C° 0 mm 2 mps 747 mmHg 64%
    05:00 +12°C° 0 mm 2 mps 748 mmHg 64%
    06:00 +12°C° 0 mm 2 mps 748 mmHg 65%
    07:00 +12°C° 0 mm 2 mps 748 mmHg 66%
    08:00 +14°C° 0 mm 2 mps 748 mmHg 61%
    09:00 +15°C° 0 mm 2 mps 748 mmHg 56%
    10:00 +17°C° 0 mm 2 mps 748 mmHg 50%
    11:00 +18°C° 0 mm 2 mps 748 mmHg 47%
    12:00 +19°C° 0 mm 2 mps 748 mmHg 44%
    13:00 +20°C° 0 mm 2 mps 748 mmHg 42%
    14:00 +20°C° 0 mm 2 mps 748 mmHg 44%
    15:00 +19°C° 0 mm 2 mps 748 mmHg 47%
    16:00 +18°C° 0 mm 2 mps 748 mmHg 49%
    17:00 +17°C° 0 mm 2 mps 748 mmHg 51%
    18:00 +16°C° 0 mm 2 mps 748 mmHg 53%
    19:00 +15°C° 0 mm 2 mps 748 mmHg 55%
    20:00 +15°C° 0 mm 2 mps 748 mmHg 56%
    21:00 +14°C° 0 mm 2 mps 747 mmHg 56%
    22:00 +14°C° 0 mm 2 mps 747 mmHg 57%
    23:00 +14°C° 0 mm 2 mps 747 mmHg 57%

    Day after tomorrow, 18 October, Thursday

    Time Temperature Precipitation Wind Pressure Humidity
    00:00 +13°C° 0 mm 2 mps 747 mmHg 57%
    01:00 +13°C° 0 mm 2 mps 747 mmHg 56%
    02:00 +13°C° 0 mm 2 mps 747 mmHg 57%
    03:00 +12°C° 0 mm 2 mps 747 mmHg 57%
    04:00 +12°C° 0 mm 1 mps 746 mmHg 58%
    05:00 +12°C° 0 mm 2 mps 746 mmHg 59%
    06:00 +13°C° 0 mm 2 mps 746 mmHg 61%
    07:00 +13°C° 0 mm 2 mps 746 mmHg 62%
    08:00 +14°C° 0.1 mm 2 mps 746 mmHg 63%
    09:00 +15°C° 0.1 mm 2 mps 746 mmHg 63%
    10:00 +16°C° 0.1 mm 2 mps 746 mmHg 64%
    11:00 +17°C° 0 mm 2 mps 746 mmHg 61%
    12:00 +18°C° 0 mm 2 mps 746 mmHg 58%
    13:00 +18°C° 0 mm 2 mps 746 mmHg 56%
    14:00 +18°C° 0 mm 2 mps 746 mmHg 58%
    15:00 +17°C° 0 mm 2 mps 746 mmHg 61%
    16:00 +18°C° 0 mm 1 mps 746 mmHg 63%
    17:00 +16°C° 0 mm 1 mps 746 mmHg 67%
    18:00 +15°C° 0 mm 2 mps 746 mmHg 71%
    19:00 +14°C° 0 mm 2 mps 746 mmHg 75%
    20:00 +13°C° 0 mm 2 mps 746 mmHg 79%
    21:00 +13°C° 0 mm 2 mps 747 mmHg 82%
    22:00 +12°C° 0 mm 2 mps 747 mmHg 85%
    23:00 +12°C° 0.1 mm 2 mps 747 mmHg 87%

    19 October, Friday

    Time Temperature Precipitation Wind Pressure Humidity
    00:00 +12°C° 0.1 mm 2 mps 747 mmHg 89%
    01:00 +12°C° 0.1 mm 2 mps 747 mmHg 91%
    02:00 +12°C° 0.2 mm 2 mps 747 mmHg 92%
    03:00 +12°C° 0.2 mm 2 mps 747 mmHg 92%
    04:00 +12°C° 0.2 mm 2 mps 747 mmHg 93%
    05:00 +12°C° 0.1 mm 2 mps 748 mmHg 92%
    06:00 +10°C° 0.1 mm 2 mps 748 mmHg 92%
    07:00 +10°C° 0.1 mm 2 mps 748 mmHg 91%
    08:00 +12°C° 0 mm 2 mps 748 mmHg 83%
    09:00 +12°C° 0 mm 3 mps 749 mmHg 75%
    10:00 +13°C° 0 mm 3 mps 749 mmHg 67%
    11:00 +13°C° 0 mm 3 mps 749 mmHg 64%
    12:00 +13°C° 0 mm 3 mps 749 mmHg 60%
    13:00 +14°C° 0 mm 3 mps 749 mmHg 57%
    14:00 +14°C° 0 mm 2 mps 749 mmHg 59%
    15:00 +14°C° 0 mm 2 mps 749 mmHg 62%
    16:00 +13°C° 0 mm 2 mps 749 mmHg 64%
    17:00 +12°C° 0 mm 2 mps 749 mmHg 69%
    18:00 +10°C° 0 mm 2 mps 749 mmHg 75%
    19:00 +9°C° 0 mm 2 mps 749 mmHg 80%
    20:00 +9°C° 0 mm 1 mps 750 mmHg 83%
    21:00 +9°C° 0 mm 1 mps 750 mmHg 85%
    22:00 +8°C° 0 mm 1 mps 750 mmHg 88%
    23:00 +8°C° 0 mm 1 mps 750 mmHg 89%

    20 October, Saturday

    Time Temperature Precipitation Wind Pressure Humidity
    00:00 +8°C° 0 mm 1 mps 749 mmHg 90%
    01:00 +8°C° 0 mm 1 mps 749 mmHg 92%
    02:00 +7°C° 0 mm 1 mps 749 mmHg 92%
    03:00 +6°C° 0 mm 2 mps 749 mmHg 93%
    04:00 +6°C° 0 mm 2 mps 749 mmHg 93%
    05:00 +5°C° 0 mm 2 mps 749 mmHg 92%
    06:00 +5°C° 0 mm 2 mps 749 mmHg 92%
    07:00 +5°C° 0 mm 2 mps 749 mmHg 91%
    08:00 +7°C° 0 mm 2 mps 749 mmHg 83%
    09:00 +8°C° 0 mm 2 mps 749 mmHg 76%
    10:00 +9°C° 0 mm 3 mps 750 mmHg 68%
    11:00 +10°C° 0 mm 3 mps 750 mmHg 66%
    12:00 +10°C° 0 mm 3 mps 749 mmHg 63%
    13:00 +11°C° 0 mm 3 mps 749 mmHg 61%
    14:00 +10°C° 0.1 mm 3 mps 749 mmHg 63%
    15:00 +10°C° 0.1 mm 3 mps 749 mmHg 65%
    16:00 +9°C° 0.1 mm 3 mps 749 mmHg 67%
    17:00 +9°C° 0 mm 3 mps 749 mmHg 71%
    18:00 +8°C° 0 mm 2 mps 749 mmHg 75%
    19:00 +7°C° 0 mm 2 mps 749 mmHg 79%
    20:00 +7°C° 0 mm 2 mps 750 mmHg 81%
    21:00 +6°C° 0 mm 2 mps 750 mmHg 83%
    22:00 +7°C° 0 mm 1 mps 750 mmHg 85%
    23:00 +7°C° 0 mm 1 mps 750 mmHg 86%

    21 October, Sunday

    Time Temperature Precipitation Wind Pressure Humidity
    00:00 +7°C° 0 mm 1 mps 750 mmHg 87%
    01:00 +7°C° 0 mm 1 mps 750 mmHg 89%
    02:00 +7°C° 0 mm 1 mps 750 mmHg 89%
    03:00 +6°C° 0 mm 1 mps 750 mmHg 90%
    04:00 +5°C° 0 mm 2 mps 750 mmHg 90%
    05:00 +5°C° 0 mm 2 mps 751 mmHg 91%
    06:00 +5°C° 0 mm 2 mps 751 mmHg 91%
    07:00 +5°C° 0 mm 2 mps 751 mmHg 92%
    08:00 +7°C° 0 mm 2 mps 751 mmHg 86%
    09:00 +8°C° 0 mm 2 mps 752 mmHg 79%
    10:00 +10°C° 0 mm 2 mps 752 mmHg 73%
    11:00 +12°C° 0 mm 2 mps 752 mmHg 69%
    12:00 +12°C° 0 mm 2 mps 752 mmHg 66%
    13:00 +13°C° 0 mm 2 mps 752 mmHg 62%
    14:00 +13°C° 0 mm 2 mps 751 mmHg 63%
    15:00 +12°C° 0 mm 2 mps 751 mmHg 65%
    16:00 +12°C° 0 mm 1 mps 751 mmHg 67%
    17:00 +10°C° 0 mm 2 mps 751 mmHg 71%
    18:00 +9°C° 0 mm 2 mps 751 mmHg 74%
    19:00 +8°C° 0 mm 2 mps 751 mmHg 78%
    20:00 +8°C° 0 mm 2 mps 751 mmHg 81%
    21:00 +7°C° 0 mm 3 mps 751 mmHg 84%
    22:00 +7°C° 0 mm 3 mps 750 mmHg 87%
    23:00 +7°C° 0 mm 3 mps 750 mmHg 87%
    Show more